CW6666 Weather Reports


Display with metric or nautical units.
time (UTC)temp
F
wind
direction
speed
MPH
gust
MPH
rain 1hr
in
rain 24hr
in
rain mn
in
humidity
%
barometer
mb
20180420123801 77 284 0.0 2.0 0.00 0.01 0.01 90 1009.0
20180420123301 77 291 1.0 1.0 0.00 0.01 0.01 90 1009.0
20180420122801 77 291 0.0 2.0 0.01 0.01 0.01 89 1008.8
20180420122301 77 291 0.0 2.0 0.01 0.01 0.01 89 1008.8
20180420121801 77 291 0.0 2.0 0.01 0.01 0.01 89 1008.8
20180420121302 77 291 0.0 2.0 0.01 0.01 0.01 88 1008.8
20180420120801 78 291 0.0 3.0 0.01 0.01 0.01 88 1008.8
20180420120301 78 292 0.0 3.0 0.01 0.01 0.01 88 1008.8
20180420115801 78 293 1.0 3.0 0.01 0.01 0.01 87 1008.8
20180420115301 78 294 0.0 3.0 0.01 0.01 0.01 87 1008.8
20180420114801 79 290 0.0 2.0 0.01 0.01 0.01 86 1008.8
20180420114301 79 327 0.0 2.0 0.01 0.01 0.01 85 1008.8
20180420113801 79 5 0.0 1.0 0.01 0.01 0.01 85 1008.8
20180420113301 79 5 0.0 2.0 0.01 0.01 0.01 84 1008.8
20180420112801 79 333 0.0 3.0 0.00 0.00 0.00 84 1008.7
20180420112301 79 303 0.0 5.0 0.00 0.00 0.00 84 1008.7
20180420111801 79 296 2.0 5.0 0.00 0.00 0.00 84 1008.7
20180420111301 79 284 2.0 4.0 0.00 0.00 0.00 84 1008.7
20180420110801 79 289 2.0 3.0 0.00 0.00 0.00 83 1008.7
20180420110301 79 296 0.0 3.0 0.00 0.00 0.00 83 1008.7
20180420105801 79 300 0.0 2.0 0.00 0.00 0.00 83 1008.7
20180420105301 79 291 0.0 3.0 0.00 0.00 0.00 83 1008.7
20180420104801 79 292 1.0 3.0 0.00 0.00 0.00 83 1008.7
20180420104301 79 285 1.0 4.0 0.00 0.00 0.00 83 1008.5
20180420103801 79 284 1.0 4.0 0.00 0.00 0.00 83 1008.5
20180420103301 80 301 2.0 4.0 0.00 0.00 0.00 82 1008.5
20180420102801 80 277 2.0 4.0 0.00 0.00 0.00 82 1008.3
20180420102301 80 31 0.0 5.0 0.00 0.00 0.00 83 1008.3
20180420101801 80 21 3.0 5.0 0.00 0.00 0.00 83 1008.3
20180420101301 80 16 2.0 5.0 0.00 0.00 0.00 83 1008.2
20180420100801 80 28 0.0 5.0 0.00 0.00 0.00 82 1008.2
20180420100301 80 15 3.0 7.0 0.00 0.00 0.00 82 1008.2
20180420095801 81 15 0.0 7.0 0.00 0.00 0.00 82 1008.1
20180420095301 81 15 2.0 6.0 0.00 0.00 0.00 82 1008.1
20180420094801 81 11 4.0 6.0 0.00 0.00 0.00 81 1008.1
20180420094301 81 16 5.0 7.0 0.00 0.00 0.00 81 1007.9
20180420093801 81 18 5.0 7.0 0.00 0.00 0.00 81 1007.9
20180420093301 81 19 3.0 10.0 0.00 0.00 0.00 81 1007.9
20180420092801 81 15 4.0 12.0 0.00 0.00 0.00 81 1007.7
20180420092301 81 32 5.0 12.0 0.00 0.00 0.00 81 1007.7
20180420091801 81 31 9.0 11.0 0.00 0.00 0.00 81 1007.7
20180420091301 81 19 5.0 11.0 0.00 0.00 0.00 82 1007.6
20180420090801 81 31 6.0 11.0 0.00 0.00 0.00 82 1007.6
20180420090301 81 9 6.0 16.0 0.00 0.00 0.00 82 1007.6
20180420085801 81 31 11.0 16.0 0.00 0.00 0.00 82 1007.6
20180420085301 81 13 6.0 13.0 0.00 0.00 0.00 82 1007.6
20180420084801 81 27 8.0 13.0 0.00 0.00 0.00 83 1007.6
20180420084301 81 28 6.0 13.0 0.00 0.00 0.00 82 1007.3
20180420083801 81 36 10.0 15.0 0.00 0.00 0.00 83 1007.3
20180420083301 81 21 9.0 16.0 0.00 0.00 0.00 82 1007.3
20180420082801 81 42 15.0 16.0 0.00 0.00 0.00 82 1007.2
20180420082301 82 17 9.0 16.0 0.00 0.00 0.00 82 1007.2
20180420081801 82 31 9.0 16.0 0.00 0.00 0.00 83 1007.2
20180420081301 82 44 13.0 15.0 0.00 0.00 0.00 82 1006.9
20180420080801 82 38 10.0 13.0 0.00 0.00 0.00 82 1006.9
20180420080301 82 38 11.0 12.0 0.00 0.00 0.00 82 1006.9
20180420075801 82 32 9.0 13.0 0.00 0.00 0.00 82 1006.7
20180420075301 82 27 6.0 14.0 0.00 0.00 0.00 81 1006.7
20180420074801 82 12 9.0 14.0 0.00 0.00 0.00 81 1006.7
20180420074301 82 30 14.0 14.0 0.00 0.00 0.00 80 1006.7
20180420073801 82 43 13.0 14.0 0.00 0.00 0.00 80 1006.7
20180420073301 82 30 9.0 14.0 0.00 0.00 0.00 82 1006.7
20180420072801 82 38 14.0 14.0 0.00 0.00 0.00 82 1006.7
20180420072301 82 34 9.0 12.0 0.00 0.00 0.00 82 1006.7
20180420071801 82 34 12.0 12.0 0.00 0.00 0.00 83 1006.7
20180420071301 82 32 7.0 12.0 0.00 0.00 0.00 82 1006.6
20180420070801 82 27 10.0 14.0 0.00 0.00 0.00 82 1006.6
20180420070301 82 38 12.0 14.0 0.00 0.00 0.00 82 1006.6
20180420065800 82 28 7.0 14.0 0.00 0.00 0.00 82 1006.6
20180420065301 82 40 14.0 14.0 0.00 0.00 0.00 80 1006.6
20180420064801 82 32 11.0 13.0 0.00 0.00 0.00 80 1006.6
20180420064301 82 21 7.0 12.0 0.00 0.00 0.00 80 1006.6
20180420063801 83 38 11.0 12.0 0.00 0.00 0.00 80 1006.6
20180420063301 82 31 7.0 12.0 0.00 0.00 0.00 79 1006.6
20180420062801 82 32 8.0 12.0 0.00 0.00 0.00 79 1006.5
20180420062301 82 42 9.0 11.0 0.00 0.00 0.00 79 1006.5
20180420061801 82 41 9.0 12.0 0.00 0.00 0.00 76 1006.5
20180420061301 82 34 9.0 12.0 0.00 0.00 0.00 79 1006.3
20180420060801 82 27 11.0 11.0 0.00 0.00 0.00 78 1006.3
20180420060301 81 13 9.0 15.0 0.00 0.00 0.00 77 1006.3
20180420055801 82 29 9.0 15.0 0.00 0.00 0.00 79 1006.4
20180420055301 82 32 13.0 15.0 0.00 0.00 0.00 80 1006.4
20180420054801 82 46 10.0 15.0 0.00 0.00 0.00 80 1006.4
20180420054301 82 31 13.0 20.0 0.00 0.00 0.00 82 1006.5
20180420053801 82 34 12.0 20.0 0.00 0.00 0.00 83 1006.5
20180420053301 83 40 17.0 21.0 0.00 0.00 0.00 83 1006.5
20180420052800 83 36 17.0 21.0 0.00 0.00 0.00 82 1006.6
20180420052301 83 40 18.0 21.0 0.00 0.00 0.00 80 1006.6
20180420051801 84 43 13.0 15.0 0.00 0.00 0.00 78 1006.6
20180420051300 85 26 12.0 15.0 0.00 0.00 0.00 79 1006.6
20180420050801 84 49 12.0 15.0 0.00 0.00 0.00 79 1006.6
20180420050301 84 50 14.0 15.0 0.00 0.00 0.00 78 1006.6
20180420045801 84 42 11.0 16.0 0.00 0.00 0.00 78 1006.6
20180420045301 84 40 13.0 16.0 0.00 0.00 0.00 78 1006.6
20180420044801 84 41 15.0 16.0 0.00 0.00 0.00 79 1006.6
20180420044301 84 40 15.0 17.0 0.00 0.00 0.00 79 1006.7
20180420043801 84 49 14.0 17.0 0.00 0.00 0.00 80 1006.7
20180420043301 84 49 12.0 15.0 0.00 0.00 0.00 79 1006.7
20180420042800 84 34 13.0 15.0 0.00 0.00 0.00 80 1006.7
20180420042301 84 53 10.0 15.0 0.00 0.00 0.00 78 1006.7
20180420041801 85 53 13.0 17.0 0.00 0.00 0.00 76 1006.7
20180420041301 85 69 13.0 17.0 0.00 0.00 0.00 76 1006.7
20180420040801 85 57 15.0 16.0 0.00 0.00 0.00 78 1006.7
20180420040301 85 48 13.0 14.0 0.00 0.00 0.00 76 1006.7
20180420035801 85 64 11.0 14.0 0.00 0.00 0.00 78 1007.1
20180420035300 84 55 10.0 15.0 0.00 0.00 0.00 76 1007.1
20180420034801 85 61 13.0 15.0 0.00 0.00 0.00 77 1007.1
20180420034230 85 60 13.0 15.0 0.00 0.00 0.00 78 1007.2
20180420033801 85 57 14.0 15.0 0.00 0.00 0.00 78 1007.2
20180420033300 85 59 10.0 16.0 0.00 0.00 0.00 76 1007.2
20180420032801 85 69 12.0 16.0 0.00 0.00 0.00 76 1007.3
20180420032301 85 71 11.0 15.0 0.00 0.00 0.00 77 1007.3
20180420031801 85 63 13.0 15.0 0.00 0.00 0.00 78 1007.3
20180420031301 85 71 12.0 15.0 0.00 0.00 0.00 77 1007.5
20180420030801 84 50 12.0 15.0 0.00 0.00 0.00 76 1007.5
20180420030301 85 57 13.0 15.0 0.00 0.00 0.00 76 1007.5
20180420025801 84 65 14.0 15.0 0.00 0.00 0.00 77 1007.7
20180420025301 85 40 14.0 15.0 0.00 0.00 0.00 77 1007.7
20180420024731 85 67 11.0 15.0 0.00 0.00 0.00 77 1007.7
20180420024301 84 62 13.0 16.0 0.00 0.00 0.00 79 1007.8
20180420023801 84 57 13.0 16.0 0.00 0.00 0.00 76 1007.8
20180420023300 84 68 12.0 15.0 0.00 0.00 0.00 76 1007.8
20180420022801 85 55 14.0 15.0 0.00 0.00 0.00 77 1007.9
20180420022301 85 51 13.0 14.0 0.00 0.00 0.00 75 1007.9
20180420021801 85 51 11.0 14.0 0.00 0.00 0.00 76 1007.9
20180420021300 85 67 12.0 14.0 0.00 0.00 0.00 75 1008.2
20180420020800 85 71 13.0 14.0 0.00 0.00 0.00 77 1008.2
20180420020301 85 67 12.0 16.0 0.00 0.00 0.00 77 1008.2
20180420015815 84 55 13.0 16.0 0.00 0.00 0.00 77 1008.3
20180420015301 84 58 13.0 15.0 0.00 0.00 0.00 77 1008.3
20180420014731 84 69 10.0 16.0 0.00 0.00 0.00 76 1008.3
20180420014301 85 72 11.0 16.0 0.00 0.00 0.00 77 1008.4
20180420013801 84 74 12.0 15.0 0.00 0.00 0.00 76 1008.4
20180420013301 85 65 12.0 16.0 0.00 0.00 0.00 77 1008.4
20180420012800 84 71 13.0 16.0 0.00 0.00 0.00 76 1008.4
20180420012301 85 57 13.0 14.0 0.00 0.00 0.00 76 1008.4
20180420011801 85 73 13.0 14.0 0.00 0.00 0.00 76 1008.4
20180420011316 85 63 10.0 14.0 0.00 0.00 0.00 76 1008.6
20180420010801 85 74 12.0 14.0 0.00 0.00 0.00 75 1008.6
20180420010300 85 70 11.0 13.0 0.00 0.00 0.00 76 1008.6
20180420005801 85 63 11.0 14.0 0.00 0.00 0.00 77 1008.7
20180420005230 84 64 9.0 15.0 0.00 0.00 0.00 76 1008.7
20180420004800 84 61 14.0 15.0 0.00 0.00 0.00 76 1008.7
20180420004231 85 67 13.0 15.0 0.00 0.00 0.00 76 1008.8
20180420003801 84 59 13.0 15.0 0.00 0.00 0.00 76 1008.8
20180420003231 85 71 10.0 14.0 0.00 0.00 0.00 76 1008.8
20180420002800 84 68 12.0 14.0 0.00 0.00 0.00 75 1008.8
20180420002301 85 65 11.0 13.0 0.00 0.00 0.00 75 1008.8
20180420001800 85 76 10.0 14.0 0.00 0.00 0.00 76 1008.8
20180420001300 84 77 10.0 14.0 0.00 0.00 0.00 76 1008.9
20180420000800 84 68 9.0 14.0 0.00 0.00 0.00 76 1008.9
20180420000300 84 67 12.0 14.0 0.00 0.00 0.00 78 1008.9
20180419235801 84 72 9.0 13.0 0.00 0.00 0.00 77 1009.1
20180419235300 84 69 9.0 13.0 0.00 0.00 0.00 76 1009.1
20180419234800 84 71 9.0 15.0 0.00 0.00 0.00 77 1009.1
20180419234230 84 63 11.0 15.0 0.00 0.00 0.00 77 1009.2
20180419233730 84 71 13.0 15.0 0.00 0.00 0.00 78 1009.2
20180419233301 84 67 11.0 15.0 0.00 0.00 0.00 78 1009.2
20180419232800 84 63 11.0 15.0 0.00 0.00 0.00 77 1009.2
20180419232300 84 70 11.0 15.0 0.00 0.00 0.00 77 1009.2
20180419231730 84 76 12.0 16.0 0.00 0.00 0.00 77 1009.2
20180419231230 84 65 13.0 17.0 0.00 0.00 0.00 77 1009.3
20180419230800 84 62 13.0 17.0 0.00 0.00 0.00 77 1009.3
20180419230301 84 60 15.0 17.0 0.00 0.00 0.00 75 1009.3
20180419225800 84 74 13.0 18.0 0.00 0.00 0.00 76 1009.3
20180419225301 84 71 14.0 18.0 0.00 0.00 0.00 75 1009.3
20180419224800 84 73 14.0 19.0 0.00 0.00 0.00 75 1009.3
20180419224301 84 70 15.0 19.0 0.00 0.00 0.00 76 1009.3
20180419223730 83 60 15.0 19.0 0.00 0.00 0.00 76 1009.3
20180419223230 84 65 15.0 19.0 0.00 0.00 0.00 77 1009.3
20180419222730 83 60 17.0 18.0 0.00 0.00 0.00 77 1009.2
20180419222301 83 62 17.0 18.0 0.00 0.00 0.00 77 1009.2
20180419221731 83 64 15.0 18.0 0.00 0.00 0.00 76 1009.2
20180419221301 83 62 14.0 17.0 0.00 0.00 0.00 77 1009.1
20180419220801 83 66 15.0 19.0 0.00 0.00 0.00 76 1009.1
20180419220230 83 63 16.0 19.0 0.00 0.00 0.00 76 1009.1
20180419215730 83 63 11.0 17.0 0.00 0.00 0.00 78 1008.9
20180419215300 83 76 13.0 17.0 0.00 0.00 0.00 78 1008.9
20180419214800 83 55 15.0 17.0 0.00 0.00 0.00 79 1008.9
20180419214230 83 61 15.0 17.0 0.00 0.00 0.00 77 1008.8
20180419213800 83 68 12.0 18.0 0.00 0.00 0.00 77 1008.8
20180419213230 82 61 17.0 18.0 0.00 0.00 0.00 77 1008.8
20180419212730 82 55 14.0 18.0 0.00 0.00 0.00 77 1008.8
20180419212231 82 61 15.0 18.0 0.00 0.00 0.00 77 1008.8
20180419211802 82 59 14.0 18.0 0.00 0.00 0.00 77 1008.8
20180419211231 82 54 15.0 16.0 0.00 0.00 0.00 78 1008.7
20180419210730 82 75 13.0 16.0 0.00 0.00 0.00 78 1008.7
20180419210230 82 63 14.0 17.0 0.00 0.00 0.00 76 1008.7
20180419205800 82 71 13.0 18.0 0.00 0.00 0.00 77 1008.6
20180419205300 82 71 13.0 18.0 0.00 0.00 0.00 78 1008.6
20180419204801 82 61 14.0 19.0 0.00 0.00 0.00 78 1008.6
20180419204300 82 71 13.0 19.0 0.00 0.00 0.00 79 1008.5
20180419203730 82 64 19.0 19.0 0.00 0.00 0.00 79 1008.5
20180419203301 82 72 16.0 17.0 0.00 0.00 0.00 79 1008.5
20180419202731 82 80 11.0 18.0 0.00 0.00 0.00 80 1008.3
20180419202300 82 59 13.0 18.0 0.00 0.00 0.00 80 1008.3
20180419201730 82 64 17.0 18.0 0.00 0.00 0.00 79 1008.3
20180419201230 81 65 14.0 18.0 0.00 0.00 0.00 79 1008.2
20180419200730 82 63 15.0 18.0 0.00 0.00 0.00 79 1008.2
20180419200231 81 66 15.0 19.0 0.00 0.00 0.00 79 1008.2
20180419195731 81 70 12.0 20.0 0.00 0.00 0.00 78 1008.2
20180419195300 81 75 14.0 20.0 0.00 0.00 0.00 79 1008.2
20180419194800 82 62 17.0 18.0 0.00 0.00 0.00 80 1008.2
20180419194300 82 69 12.0 18.0 0.00 0.00 0.00 81 1008.1
20180419193801 82 57 16.0 17.0 0.00 0.00 0.00 81 1008.1
20180419193231 82 55 15.0 17.0 0.00 0.00 0.00 80 1008.1
20180419192801 82 59 16.0 17.0 0.00 0.00 0.00 80 1008.0
20180419192231 82 63 12.0 17.0 0.00 0.00 0.00 80 1008.0
20180419191800 81 58 14.0 17.0 0.00 0.00 0.00 79 1008.0
20180419191231 82 62 11.0 18.0 0.00 0.00 0.00 79 1007.8
20180419190730 82 55 16.0 18.0 0.00 0.00 0.00 78 1007.8
20180419190230 82 78 13.0 18.0 0.00 0.00 0.00 78 1007.8
20180419185800 82 72 14.0 19.0 0.00 0.00 0.00 78 1007.7
20180419185300 82 61 14.0 19.0 0.00 0.00 0.00 77 1007.7
20180419184801 82 60 17.0 18.0 0.00 0.00 0.00 78 1007.7
20180419184300 82 61 15.0 20.0 0.00 0.00 0.00 78 1007.7
20180419183800 81 63 18.0 20.0 0.00 0.00 0.00 78 1007.7
20180419183301 82 68 16.0 18.0 0.00 0.00 0.00 79 1007.7
20180419182730 81 66 14.0 19.0 0.00 0.00 0.00 80 1007.4
20180419182300 81 54 13.0 19.0 0.00 0.00 0.00 81 1007.4
20180419181800 82 62 17.0 17.0 0.00 0.00 0.00 81 1007.4
20180419181231 82 57 16.0 17.0 0.00 0.00 0.00 82 1007.3
20180419180731 82 62 15.0 18.0 0.00 0.00 0.00 82 1007.3
20180419180230 81 63 15.0 19.0 0.00 0.00 0.00 81 1007.3
20180419175800 82 63 16.0 19.0 0.00 0.00 0.00 82 1007.2
20180419175230 82 65 15.0 19.0 0.00 0.00 0.00 81 1007.2
20180419174801 82 57 15.0 19.0 0.00 0.00 0.00 81 1007.2
20180419174230 82 65 15.0 19.0 0.00 0.00 0.00 80 1007.2
20180419173800 82 57 17.0 20.0 0.00 0.00 0.00 80 1007.2
20180419173230 82 70 17.0 20.0 0.00 0.00 0.00 82 1007.2
20180419172801 82 56 20.0 20.0 0.00 0.00 0.00 81 1007.2
20180419172300 82 51 15.0 19.0 0.00 0.00 0.00 81 1007.2
20180419171730 82 79 13.0 19.0 0.00 0.00 0.00 80 1007.2
20180419171230 82 57 19.0 19.0 0.00 0.00 0.00 81 1007.1
20180419170730 82 53 15.0 19.0 0.00 0.00 0.00 80 1007.1
20180419170231 82 53 17.0 19.0 0.00 0.00 0.00 81 1007.1
20180419165731 82 68 17.0 19.0 0.00 0.00 0.00 81 1007.2
20180419165230 82 62 14.0 18.0 0.00 0.00 0.00 81 1007.2
20180419164731 82 44 17.0 19.0 0.00 0.00 0.00 81 1007.2
20180419164231 82 57 14.0 19.0 0.00 0.00 0.00 80 1007.2
20180419163800 82 58 16.0 20.0 0.00 0.00 0.00 80 1007.2
20180419163230 82 55 15.0 20.0 0.00 0.00 0.00 81 1007.2
20180419162730 82 44 16.0 19.0 0.00 0.00 0.00 82 1007.2
20180419162230 82 48 14.0 19.0 0.00 0.00 0.00 81 1007.2
20180419161730 82 43 16.0 20.0 0.00 0.00 0.00 82 1007.2
20180419161230 82 63 13.0 20.0 0.00 0.00 0.00 81 1007.2
20180419160731 82 57 17.0 18.0 0.00 0.00 0.00 81 1007.2
20180419160230 82 64 16.0 18.0 0.00 0.00 0.00 80 1007.2
20180419155731 82 62 15.0 17.0 0.00 0.00 0.00 80 1007.4
20180419155230 82 64 15.0 18.0 0.00 0.00 0.00 81 1007.4
20180419154800 82 54 14.0 18.0 0.00 0.00 0.00 82 1007.4
20180419154300 82 57 15.0 18.0 0.00 0.00 0.00 82 1007.6
20180419153730 82 49 16.0 17.0 0.00 0.00 0.00 82 1007.6
20180419153300 82 57 14.0 19.0 0.00 0.00 0.00 83 1007.6
20180419152731 82 56 15.0 19.0 0.00 0.00 0.00 82 1007.7
20180419152230 82 54 17.0 19.0 0.00 0.00 0.00 84 1007.7
20180419151730 82 65 15.0 19.0 0.00 0.00 0.00 84 1007.7
20180419151230 82 50 15.0 18.0 0.00 0.00 0.00 83 1007.7
20180419150731 82 53 12.0 19.0 0.00 0.00 0.00 83 1007.7
20180419150231 82 64 12.0 20.0 0.00 0.00 0.00 82 1007.7
20180419145730 82 48 18.0 20.0 0.00 0.00 0.00 82 1007.7
20180419145230 82 40 15.0 19.0 0.00 0.00 0.00 83 1007.7
20180419144730 82 61 12.0 17.0 0.00 0.00 0.00 85 1007.7
20180419144230 82 61 14.0 17.0 0.00 0.00 0.00 85 1007.8
20180419143731 82 61 15.0 17.0 0.00 0.00 0.00 85 1007.8
20180419143300 82 59 16.0 18.0 0.00 0.00 0.00 85 1007.8
20180419142730 82 63 12.0 18.0 0.00 0.00 0.00 84 1007.8
20180419142230 82 62 17.0 18.0 0.00 0.00 0.00 84 1007.8
20180419141800 82 71 14.0 20.0 0.00 0.00 0.00 83 1007.8
20180419141230 82 59 15.0 20.0 0.00 0.00 0.00 84 1008.0
20180419140730 82 61 18.0 21.0 0.00 0.00 0.00 83 1008.0
20180419140301 82 61 14.0 21.0 0.00 0.00 0.00 83 1008.0
20180419135800 82 69 14.0 17.0 0.00 0.00 0.00 85 1008.2
20180419135300 82 67 13.0 19.0 0.00 0.00 0.00 85 1008.2
20180419134800 82 64 15.0 19.0 0.00 0.00 0.00 85 1008.2
20180419134300 82 68 13.0 19.0 0.00 0.00 0.00 85 1008.2
20180419133800 82 71 15.0 19.0 0.00 0.00 0.00 85 1008.2
20180419133300 82 74 16.0 19.0 0.00 0.00 0.00 85 1008.2
20180419132801 82 67 15.0 18.0 0.00 0.00 0.00 85 1008.3
20180419132300 82 72 13.0 18.0 0.00 0.00 0.00 85 1008.3
20180419131800 82 67 16.0 18.0 0.00 0.00 0.00 85 1008.3
20180419131301 82 64 18.0 18.0 0.00 0.00 0.00 85 1008.3
20180419130800 82 59 12.0 21.0 0.00 0.00 0.00 86 1008.3
20180419130300 82 49 15.0 21.0 0.00 0.00 0.00 85 1008.3
20180419125800 82 51 17.0 19.0 0.00 0.00 0.00 85 1008.3
20180419125300 82 67 15.0 19.0 0.00 0.00 0.00 85 1008.3
20180419124801 82 66 18.0 20.0 0.00 0.00 0.00 85 1008.3
20180419124301 82 73 17.0 20.0 0.00 0.00 0.00 85 1008.3